H1 CPF 2 NER 2024 3 24 9 084 01 glonass116 H2 0907001 9116 36111 2024 3 24 0 0 0 2024 3 27 23 45 0 900 1 1 0 0 0 1 H9 10 0 60393 0.00000 0 -5048830.602 24638922.851 -4300369.038 10 0 60393 900.00000 0 -4846668.061 23931030.724 -7403443.496 10 0 60393 1800.00000 0 -4689561.009 22837333.159 -10362802.142 10 0 60393 2700.00000 0 -4628893.449 21383627.693 -13120973.237 10 0 60393 3600.00000 0 -4710420.631 19607550.742 -15624376.400 10 0 60393 4500.00000 0 -4972114.532 17557129.201 -17824364.199 10 0 60393 5400.00000 0 -5442344.618 15288913.153 -19678168.519 10 0 60393 6300.00000 0 -6138471.510 12865767.026 -21149733.317 10 0 60393 7200.00000 0 -7065913.870 10354410.884 -22210417.605 10 0 60393 8100.00000 0 -8217728.955 7822813.811 -22839555.013 10 0 60393 9000.00000 0 -9574725.785 5337547.494 -23024859.093 10 0 60393 9900.00000 0 -11106107.476 2961209.810 -22762666.342 10 0 60393 10800.00000 0 -12770617.119 750025.153 -22058012.098 10 0 60393 11700.00000 0 -14518140.382 -1248279.005 -20924537.443 10 0 60393 12600.00000 0 -16291698.661 -2996231.364 -19384228.573 10 0 60393 13500.00000 0 -18029750.093 -4467939.098 -17466993.174 10 0 60393 14400.00000 0 -19668702.464 -5649918.649 -15210081.555 10 0 60393 15300.00000 0 -21145532.851 -6541401.071 -12657363.397 10 0 60393 16200.00000 0 -22400403.980 -7154100.059 -9858473.907 10 0 60393 17100.00000 0 -23379167.156 -7511453.495 -6867845.897 10 0 60393 18000.00000 0 -24035646.056 -7647371.583 -3743646.827 10 0 60393 18900.00000 0 -24333604.806 -7604545.672 -546641.896 10 0 60393 19800.00000 0 -24248316.982 -7432390.484 2660994.096 10 0 60393 20700.00000 0 -23767669.043 -7184708.062 5816892.176 10 0 60393 21600.00000 0 -22892751.442 -6917173.565 8859707.504 10 0 60393 22500.00000 0 -21637912.415 -6684750.434 11730316.108 10 0 60393 23400.00000 0 -20030272.222 -6539145.304 14372966.140 10 0 60393 24300.00000 0 -18108718.387 -6526411.085 16736360.955 10 0 60393 25200.00000 0 -15922424.281 -6684800.050 18774652.937 10 0 60393 26100.00000 0 -13528953.283 -7042957.915 20448328.954 10 0 60393 27000.00000 0 -10992027.853 -7618535.223 21724970.831 10 0 60393 27900.00000 0 -8379056.498 -8417274.588 22579876.829 10 0 60393 28800.00000 0 -5758521.375 -9432612.220 22996532.894 10 0 60393 29700.00000 0 -3197334.626 -10645810.551 22966925.446 10 0 60393 30600.00000 0 -758272.455 -12026616.630 22491690.415 10 0 60393 31500.00000 0 1502407.530 -13534419.035 21580096.220 10 0 60393 32400.00000 0 3537068.057 -15119855.372 20249861.389 10 0 60393 33300.00000 0 5308427.112 -16726803.745 18526810.428 10 0 60393 34200.00000 0 6790855.360 -18294675.558 16444374.436 10 0 60393 35100.00000 0 7971183.511 -19760914.434 14042945.795 10 0 60393 36000.00000 0 8848987.371 -21063597.334 11369098.855 10 0 60393 36900.00000 0 9436339.902 -22144029.445 8474691.227 10 0 60393 37800.00000 0 9757041.776 -22949224.445 5415862.489 10 0 60393 38700.00000 0 9845363.623 -23434166.277 2251949.265 10 0 60393 39600.00000 0 9744353.583 -23563757.386 -955662.602 10 0 60393 40500.00000 0 9503781.992 -23314371.306 -4144726.701 10 0 60393 41400.00000 0 9177810.348 -22674943.845 -7253342.547 10 0 60393 42300.00000 0 8822483.287 -21647556.292 -10221156.373 10 0 60393 43200.00000 0 8493149.875 -20247485.344 -12990532.795 10 0 60393 44100.00000 0 8241923.479 -18502716.667 -15507674.493 10 0 60393 45000.00000 0 8115287.928 -16452941.525 -17723667.960 10 0 60393 45900.00000 0 8151951.523 -14148077.484 -19595434.995 10 0 60393 46800.00000 0 8381040.048 -11646374.090 -21086571.418 10 0 60393 47700.00000 0 8820705.657 -9012181.743 -22168056.759 10 0 60393 48600.00000 0 9477211.108 -6313475.995 -22818821.125 10 0 60393 49500.00000 0 10344528.817 -3619239.666 -23026158.294 10 0 60393 50400.00000 0 11404472.632 -996811.113 -22785976.866 10 0 60393 51300.00000 0 12627357.839 1490691.593 -22102884.444 10 0 60393 52200.00000 0 13973162.734 3786764.005 -20990102.864 10 0 60393 53100.00000 0 15393143.894 5843627.005 -19469215.724 10 0 60393 54000.00000 0 16831838.056 7623969.476 -17569752.627 10 0 60393 54900.00000 0 18229367.101 9102249.892 -15328617.717 10 0 60393 55800.00000 0 19523949.465 10265503.109 -12789373.224 10 0 60393 56700.00000 0 20654512.412 11113619.451 -10001391.672 10 0 60393 57600.00000 0 21563294.956 11659085.372 -7018893.140 10 0 60393 58500.00000 0 22198331.377 11926197.693 -3899886.530 10 0 60393 59400.00000 0 22515710.062 11949785.753 -705035.810 10 0 60393 60300.00000 0 22481511.846 11773496.695 2503526.100 10 0 60393 61200.00000 0 22073345.476 11447717.628 5663411.926 10 0 60393 62100.00000 0 21281414.974 11027223.842 8713198.706 10 0 60393 63000.00000 0 20109073.491 10568653.688 11593626.102 10 0 60393 63900.00000 0 18572840.106 10127918.012 14248750.405 10 0 60393 64800.00000 0 16701878.699 9757654.435 16627031.450 10 0 60393 65700.00000 0 14536960.721 9504834.619 18682331.301 10 0 60393 66600.00000 0 12128955.277 9408625.847 20374805.469 10 0 60393 67500.00000 0 9536909.582 9498597.108 21671669.928 10 0 60393 68400.00000 0 6825799.691 9793345.193 22547829.748 10 0 60393 69300.00000 0 4064044.859 10299598.356 22986358.013 10 0 60393 70200.00000 0 1320888.341 11011835.003 22978816.614 10 0 60393 71100.00000 0 -1336247.369 11912433.260 22525413.467 10 0 60393 72000.00000 0 -3844322.055 12972345.129 21634993.736 10 0 60393 72900.00000 0 -6147050.960 14152267.114 20324865.581 10 0 60393 73800.00000 0 -8196992.458 15404258.569 18620463.913 10 0 60393 74700.00000 0 -9957264.869 16673740.412 16554858.509 10 0 60393 75600.00000 0 -11402822.446 17901790.940 14168115.654 10 0 60393 76500.00000 0 -12521238.738 19027643.061 11506525.139 10 0 60393 77400.00000 0 -13312965.887 19991278.605 8621707.051 10 0 60393 78300.00000 0 -13791060.128 20736011.176 5569615.087 10 0 60393 79200.00000 0 -13980385.960 21210949.180 2409455.234 10 0 60393 80100.00000 0 -13916333.159 21373235.414 -797459.518 10 0 60393 81000.00000 0 -13643101.234 21189968.722 -3988896.418 10 0 60393 81900.00000 0 -13211624.046 20639726.339 -7102909.177 10 0 60393 82800.00000 0 -12677222.507 19713622.119 -10079039.628 10 0 60393 83700.00000 0 -12097084.672 18415855.213 -12859491.413 10 0 60393 84600.00000 0 -11527679.898 16763725.056 -15390252.744 10 0 60393 85500.00000 0 -11022216.447 14787110.833 -17622146.294 10 0 60394 0.00000 0 -10628250.185 12527436.244 -19511785.611 10 0 60394 900.00000 0 -10385545.330 10036160.370 -21022420.441 10 0 60394 1800.00000 0 -10324278.414 7372859.626 -22124652.058 10 0 60394 2700.00000 0 -10463660.835 4602975.682 -22797008.163 10 0 60394 3600.00000 0 -10811039.184 1795325.186 -23026363.538 10 0 60394 4500.00000 0 -11361511.603 -980527.095 -22808199.300 10 0 60394 5400.00000 0 -12098077.083 -3656922.959 -22146695.339 10 0 60394 6300.00000 0 -12992312.142 -6170683.557 -21054653.840 10 0 60394 7200.00000 0 -14005547.147 -8465493.764 -19553254.965 10 0 60394 8100.00000 0 -15090493.367 -10493999.416 -17671648.969 10 0 60394 9000.00000 0 -16193252.777 -12219530.556 -15446392.182 10 0 60394 9900.00000 0 -17255626.207 -13617379.292 -12920737.396 10 0 60394 10800.00000 0 -18217622.611 -14675579.549 -10143792.196 10 0 60394 11700.00000 0 -19020063.444 -15395156.860 -7169561.486 10 0 60394 12600.00000 0 -19607171.815 -15789838.647 -4055893.013 10 0 60394 13500.00000 0 -19929036.532 -15885238.293 -863346.816 10 0 60394 14400.00000 0 -19943846.293 -15717548.597 2345988.840 10 0 60394 15300.00000 0 -19619798.933 -15331801.022 5509711.210 10 0 60394 16200.00000 0 -18936604.451 -14779765.545 8566322.082 10 0 60394 17100.00000 0 -17886517.784 -14117581.052 11456427.612 10 0 60394 18000.00000 0 -16474857.327 -13403217.530 14123895.011 10 0 60394 18900.00000 0 -14719986.980 -12693878.109 16516943.236 10 0 60394 19800.00000 0 -12652762.180 -12043451.274 18589146.440 10 0 60394 20700.00000 0 -10315462.913 -11500121.011 20300330.877 10 0 60394 21600.00000 0 -7760258.080 -11104235.678 21617348.374 10 0 60394 22500.00000 0 -5047265.003 -10886525.037 22514712.104 10 0 60394 23400.00000 0 -2242284.504 -10866740.086 22975083.135 10 0 60394 24300.00000 0 585694.812 -11052772.279 22989599.227 10 0 60394 25200.00000 0 3367120.204 -11440288.664 22558040.278 10 0 60394 26100.00000 0 6034518.388 -12012897.781 21688827.806 10 0 60394 27000.00000 0 8525050.519 -12742839.111 20398858.876 10 0 60394 27900.00000 0 10782873.802 -13592167.082 18713177.762 10 0 60394 28800.00000 0 12761212.936 -14514380.022 16664491.579 10 0 60394 29700.00000 0 14424056.622 -15456425.969 14292538.887 10 0 60394 30600.00000 0 15747409.805 -16361001.454 11643322.994 10 0 60394 31500.00000 0 16720050.573 -17169046.989 8768224.253 10 0 60394 32400.00000 0 17343761.190 -17822334.656 5723008.008 10 0 60394 33300.00000 0 17633024.490 -18266039.064 2566746.922 10 0 60394 34200.00000 0 17614199.109 -18451183.413 -639321.711 10 0 60394 35100.00000 0 17324208.835 -18336857.377 -3832981.705 10 0 60394 36000.00000 0 16808801.659 -17892112.895 -6952243.856 10 0 60394 36900.00000 0 16120452.196 -17097457.260 -9936548.411 10 0 60394 37800.00000 0 15315996.165 -15945879.698 -12727940.700 10 0 60394 38700.00000 0 14454096.837 -14443367.089 -15272196.965 10 0 60394 39600.00000 0 13592650.450 -12608885.846 -17519878.339 10 0 60394 40500.00000 0 12786240.121 -10473829.343 -19427292.480 10 0 60394 41400.00000 0 12083745.685 -8080952.559 -20957344.146 10 0 60394 42300.00000 0 11526210.308 -5482837.118 -22080258.207 10 0 60394 43200.00000 0 11145053.898 -2739949.443 -22774161.081 10 0 60394 44100.00000 0 10960708.726 81628.253 -23025509.332 10 0 60394 45000.00000 0 10981734.958 2912700.715 -22829357.006 10 0 60394 45900.00000 0 11204453.643 5683592.930 -22189456.329 10 0 60394 46800.00000 0 11613112.956 8326805.214 -21118189.541 10 0 60394 47700.00000 0 12180581.096 10779580.226 -19636332.745 10 0 60394 48600.00000 0 12869536.972 12986275.617 -17772655.904 10 0 60394 49500.00000 0 13634108.797 14900443.915 -15563366.264 10 0 60394 50400.00000 0 14421891.612 16486533.297 -13051405.582 10 0 60394 51300.00000 0 15176258.548 17721138.669 -10285614.583 10 0 60394 52200.00000 0 15838868.008 18593751.305 -7319780.739 10 0 60394 53100.00000 0 16352260.364 19106976.283 -4211588.099 10 0 60394 54000.00000 0 16662433.804 19276209.530 -1021489.987 10 0 60394 54900.00000 0 16721289.652 19128789.070 2188472.952 10 0 60394 55800.00000 0 16488842.978 18702657.406 5355885.542 10 0 60394 56700.00000 0 15935104.239 18044592.680 8419177.347 10 0 60394 57600.00000 0 15041551.737 17208084.451 11318823.968 10 0 60394 58500.00000 0 13802132.061 16250944.855 13998506.334 10 0 60394 59400.00000 0 12223745.836 15232756.895 16406205.139 10 0 60394 60300.00000 0 10326197.814 14212268.107 18495209.015 10 0 60394 61200.00000 0 8141613.000 13244839.859 20225017.103 10 0 60394 62100.00000 0 5713342.846 12380059.684 21562118.958 10 0 60394 63000.00000 0 3094406.761 11659616.811 22480637.408 10 0 60394 63900.00000 0 345533.424 11115529.656 22962822.701 10 0 60394 64800.00000 0 -2467117.217 10768798.955 22999389.250 10 0 60394 65700.00000 0 -5274457.370 10628542.271 22589689.244 10 0 60394 66600.00000 0 -8007097.185 10691645.364 21741720.358 10 0 60394 67500.00000 0 -10597985.017 10942944.363 20471967.827 10 0 60394 68400.00000 0 -12984953.742 11355930.565 18805084.022 10 0 60394 69300.00000 0 -15113068.580 11893947.949 16773411.627 10 0 60394 70200.00000 0 -16936680.089 12511833.003 14416359.284 10 0 60394 71100.00000 0 -18421098.049 13157927.985 11779641.288 10 0 60394 72000.00000 0 -19543817.536 13776383.092 8914395.495 10 0 60394 72900.00000 0 -20295246.932 14309650.788 5876196.001 10 0 60394 73800.00000 0 -20678908.250 14701067.335 2723979.203 10 0 60394 74700.00000 0 -20711102.009 14897412.687 -481096.231 10 0 60394 75600.00000 0 -20420051.243 14851340.586 -3676833.571 10 0 60394 76500.00000 0 -19844561.021 14523575.936 -6801203.510 10 0 60394 77400.00000 0 -19032250.111 13884786.113 -9793547.423 10 0 60394 78300.00000 0 -18037429.461 12917046.430 -12595754.915 10 0 60394 79200.00000 0 -16918716.913 11614836.882 -15153392.651 10 0 60394 80100.00000 0 -15736488.713 9985526.944 -17416762.399 10 0 60394 81000.00000 0 -14550275.118 8049326.585 -19341867.661 10 0 60394 81900.00000 0 -13416209.711 5838703.972 -20891270.116 10 0 60394 82800.00000 0 -12384639.732 3397292.711 -22034819.261 10 0 60394 83700.00000 0 -11497997.845 778332.717 -22750241.093 10 0 60394 84600.00000 0 -10789024.801 -1957291.670 -23023574.444 10 0 60394 85500.00000 0 -10279417.657 -4743335.831 -22849446.389 10 0 60395 0.00000 0 -9978960.403 -7510707.057 -22231181.297 10 0 60395 900.00000 0 -9885173.409 -10190102.627 -21180740.688 10 0 60395 1800.00000 0 -9983496.840 -12714661.028 -19718495.609 10 0 60395 2700.00000 0 -10247999.770 -15022521.380 -17872834.355 10 0 60395 3600.00000 0 -10642585.562 -17059181.185 -15679613.394 10 0 60395 4500.00000 0 -11122642.334 -18779555.804 -13181461.516 10 0 60395 5400.00000 0 -11637068.683 -20149653.716 -10426950.450 10 0 60395 6300.00000 0 -12130588.689 -21147797.809 -7469647.972 10 0 60395 7200.00000 0 -12546257.772 -21765341.957 -4367072.087 10 0 60395 8100.00000 0 -12828052.721 -22006853.434 -1179566.995 10 0 60395 9000.00000 0 -12923435.452 -21889754.242 2030876.728 10 0 60395 9900.00000 0 -12785781.133 -21443437.414 5201833.967 10 0 60395 10800.00000 0 -12376567.023 -20707896.549 8271664.604 10 0 60395 11700.00000 0 -11667228.634 -19731927.466 11180716.233 10 0 60395 12600.00000 0 -10640604.018 -18570978.846 13872486.053 10 0 60395 13500.00000 0 -9291904.552 -17284743.404 16294718.946 10 0 60395 14400.00000 0 -7629170.754 -15934591.766 18400420.346 10 0 60395 15300.00000 0 -5673193.395 -14580957.506 20148764.366 10 0 60395 16200.00000 0 -3456902.715 -13280783.398 21505880.080 10 0 60395 17100.00000 0 -1024250.748 -12085135.896 22445501.411 10 0 60395 18000.00000 0 1571367.181 -11037087.415 22949468.834 10 0 60395 18900.00000 0 4269086.677 -10169954.365 23008074.065 10 0 60395 19800.00000 0 7002862.893 -9505963.797 22620241.835 10 0 60395 20700.00000 0 9703979.311 -9055403.417 21793545.844 10 0 60395 21600.00000 0 12303673.522 -8816289.562 20544059.000 10 0 60395 22500.00000 0 14735772.055 -8774566.075 18896040.929 10 0 60395 23400.00000 0 16939225.910 -8904825.007 16881468.710 10 0 60395 24300.00000 0 18860442.492 -9171518.316 14539419.564 10 0 60395 25200.00000 0 20455317.956 -9530609.336 11915316.923 10 0 60395 26100.00000 0 21690886.168 -9931594.354 9060053.976 10 0 60395 27000.00000 0 22546516.277 -10319809.137 6029011.072 10 0 60395 27900.00000 0 23014609.496 -10638923.143 2880985.560 10 0 60395 28800.00000 0 23100766.413 -10833516.163 -322945.507 10 0 60395 29700.00000 0 22823418.211 -10851628.443 -3520607.957 10 0 60395 30600.00000 0 22212937.525 -10647176.269 -6649935.503 10 0 60395 31500.00000 0 21310266.451 -10182130.490 -9650173.673 10 0 60395 32400.00000 0 20165119.488 -9428365.216 -12463059.191 10 0 60395 33300.00000 0 18833836.956 -8369097.727 -15033951.757 10 0 60395 34200.00000 0 17376979.169 -6999857.669 -17312896.103 10 0 60395 35100.00000 0 15856762.388 -5328943.358 -19255593.613 10 0 60395 36000.00000 0 14334444.209 -3377344.424 -20824264.629 10 0 60395 36900.00000 0 12867768.048 -1178132.419 -21988384.699 10 0 60395 37800.00000 0 11508573.825 1224656.769 -22725280.498 10 0 60395 38700.00000 0 10300674.898 3777603.620 -23020573.890 10 0 60395 39600.00000 0 9278090.116 6419884.276 -22868465.392 10 0 60395 40500.00000 0 8463704.900 9085567.239 -22271851.416 10 0 60395 41400.00000 0 7868417.296 11706132.876 -21242272.696 10 0 60395 42300.00000 0 7490804.605 14213111.628 -19799694.504 10 0 60395 43200.00000 0 7317324.275 16540731.601 -17972122.469 10 0 60395 44100.00000 0 7323040.283 18628465.636 -15795060.955 10 0 60395 45000.00000 0 7472844.017 20423371.734 -13310824.106 10 0 60395 45900.00000 0 7723117.654 21882129.243 -10567712.643 10 0 60395 46800.00000 0 8023769.236 22972685.743 -7619072.321 10 0 60395 47700.00000 0 8320552.673 23675445.768 -4522252.481 10 0 60395 48600.00000 0 8557573.741 23983951.803 -1337485.340 10 0 60395 49500.00000 0 8679875.035 23905029.412 1873291.609 10 0 60395 50400.00000 0 8635989.497 23458391.011 5047646.419 10 0 60395 51300.00000 0 8380353.400 22675715.791 8123872.372 10 0 60395 52200.00000 0 7875475.779 21599245.426 11042192.060 10 0 60395 53100.00000 0 7093771.685 20279955.654 13745921.791 10 0 60395 54000.00000 0 6018981.116 18775381.591 16182573.292 10 0 60395 54900.00000 0 4647113.087 17147188.967 18304871.204 10 0 60395 55800.00000 0 2986874.551 15458593.896 20071666.773 10 0 60395 56700.00000 0 1059565.554 13771739.674 21448730.458 10 0 60395 57600.00000 0 -1101555.539 12145140.448 22409408.822 10 0 60395 58500.00000 0 -3452410.816 10631298.388 22935133.749 10 0 60395 59400.00000 0 -5939698.740 9274593.240 23015775.015 10 0 60395 60300.00000 0 -8502881.541 8109531.497 22649830.179 10 0 60395 61200.00000 0 -11076482.201 7159427.171 21844448.733 10 0 60395 62100.00000 0 -13592596.532 6435568.049 20615290.471 10 0 60395 63000.00000 0 -15983516.939 5936901.047 18986220.934 10 0 60395 63900.00000 0 -18184359.814 5650248.705 16988849.724 10 0 60395 64800.00000 0 -20135588.282 5551046.805 14661920.281 10 0 60395 65700.00000 0 -21785326.211 5604571.397 12050562.445 10 0 60395 66600.00000 0 -23091367.810 5767603.146 9205421.715 10 0 60395 67500.00000 0 -24022799.596 5990458.603 6181681.508 10 0 60395 68400.00000 0 -24561167.441 6219302.559 3037996.886 10 0 60395 69300.00000 0 -24701140.170 6398643.758 -164639.933 10 0 60395 70200.00000 0 -24450642.111 6473908.387 -3364080.475 10 0 60395 71100.00000 0 -23830449.081 6393982.301 -6498224.484 10 0 60395 72000.00000 0 -22873264.765 6113614.121 -9506224.501 10 0 60395 72900.00000 0 -21622316.191 5595577.045 -12329667.047 10 0 60395 73800.00000 0 -20129527.135 4812497.213 -14913707.317 10 0 60395 74700.00000 0 -18453346.016 3748270.438 -17208135.185 10 0 60395 75600.00000 0 -16656319.265 2399006.326 -19168351.756 10 0 60395 76500.00000 0 -14802511.731 773458.601 -20756237.472 10 0 60395 77400.00000 0 -12954882.053 -1107078.036 -21940894.926 10 0 60395 78300.00000 0 -11172722.666 -3209401.833 -22699251.998 10 0 60395 79200.00000 0 -9509271.354 -5489543.852 -23016513.633 10 0 60395 80100.00000 0 -8009593.981 -7894367.689 -22886453.391 10 0 60395 81000.00000 0 -6708826.666 -10363563.682 -22311538.984 10 0 60395 81900.00000 0 -5630850.592 -12831955.663 -21302889.034 10 0 60395 82800.00000 0 -4787454.510 -15232024.991 -19880061.527 10 0 60395 83700.00000 0 -4178019.569 -17496547.301 -18070677.600 10 0 60395 84600.00000 0 -3789739.115 -19561232.408 -15909887.455 10 0 60395 85500.00000 0 -3598363.617 -21367257.293 -13439688.370 10 0 60396 0.00000 0 -3569438.591 -22863586.235 -10708108.006 10 0 60396 900.00000 0 -3659982.554 -24008981.641 -7768267.245 10 0 60396 1800.00000 0 -3820533.209 -24773619.301 -4677344.648 10 0 60396 2700.00000 0 -3997474.354 -25140242.943 -1495458.139 10 0 60396 3600.00000 0 -4135544.031 -25104807.647 1715510.151 10 0 60396 4500.00000 0 -4180416.616 -24676586.216 4893123.677 10 0 60396 5400.00000 0 -4081248.438 -23877734.366 7975611.333 10 0 60396 6300.00000 0 -3793078.143 -22742333.670 10903072.891 10 0 60396 7200.00000 0 -3278979.336 -21314953.277 13618645.907 10 0 60396 8100.00000 0 -2511873.708 -19648791.643 16069611.009 10 0 60396 9000.00000 0 -1475927.447 -17803477.023 18208413.982 10 0 60396 9900.00000 0 -167471.490 -15842619.575 19993584.937 10 0 60396 10800.00000 0 1404593.604 -13831217.943 21390537.211 10 0 60396 11700.00000 0 3218925.689 -11833028.819 22372231.202 10 0 60396 12600.00000 0 5242397.157 -9908009.123 22919691.053 10 0 60396 13500.00000 0 7431252.336 -8109936.892 23022365.109 10 0 60396 14400.00000 0 9732718.599 -6484309.171 22678323.908 10 0 60396 15300.00000 0 12087004.809 -5066603.383 21894292.542 10 0 60396 16200.00000 0 14429604.781 -3880973.337 20685517.175 10 0 60396 17100.00000 0 16693810.847 -2939432.862 19075468.432 10 0 60396 18000.00000 0 18813333.833 -2241559.822 17095387.302 10 0 60396 18900.00000 0 20724921.295 -1774731.606 14783682.026 10 0 60396 19800.00000 0 22370865.733 -1514881.162 12185187.121 10 0 60396 20700.00000 0 23701298.858 -1427740.975 9350298.370 10 0 60396 21600.00000 0 24676176.637 -1470522.046 6333999.949 10 0 60396 22500.00000 0 25266872.486 -1593956.673 3194802.048 10 0 60396 23400.00000 0 25457312.060 -1744618.571 -6390.752 10 0 60396 24300.00000 0 25244602.148 -1867422.070 -3207458.606 10 0 60396 25200.00000 0 24639127.131 -1908194.517 -6346270.268 10 0 60396 26100.00000 0 23664108.759 -1816212.755 -9361888.209 10 0 60396 27000.00000 0 22354647.395 -1546595.967 -12195751.504 10 0 60396 27900.00000 0 20756284.638 -1062453.084 -14792813.363 10 0 60396 28800.00000 0 18923147.235 -336693.233 -17102611.055 10 0 60396 29700.00000 0 16915749.750 646578.243 -19080247.370 10 0 60396 30600.00000 0 14798547.635 1891138.261 -20687264.534 10 0 60396 31500.00000 0 12637342.790 3388239.141 -21892393.591 10 0 60396 32400.00000 0 10496649.726 5116735.069 -22672164.767 10 0 60396 33300.00000 0 8437132.024 7043738.166 -23011366.940 10 0 60396 34200.00000 0 6513215.787 9125778.253 -22903347.276 10 0 60396 35100.00000 0 4770979.328 11310419.276 -22350145.007 10 0 60396 36000.00000 0 3246406.761 13538266.160 -21362456.521 10 0 60396 36900.00000 0 1964077.971 15745279.298 -19959432.033 10 0 60396 37800.00000 0 936349.166 17865300.789 -18168307.317 10 0 60396 38700.00000 0 163057.632 19832687.412 -16023877.166 10 0 60396 39600.00000 0 -368237.663 21584940.420 -13567820.379 10 0 60396 40500.00000 0 -681490.618 23065222.131 -10847889.079 10 0 60396 41400.00000 0 -810910.902 24224653.701 -7916977.970 10 0 60396 42300.00000 0 -799269.269 25024297.442 -4832091.789 10 0 60396 43200.00000 0 -695838.010 25436740.182 -1653231.355 10 0 60396 44100.00000 0 -554054.804 25447210.983 1557779.540 10 0 60396 45000.00000 0 -429010.042 25054186.127 4738502.816 10 0 60396 45900.00000 0 -374865.178 24269456.098 7827106.059 10 0 60396 46800.00000 0 -442312.487 23117652.046 10763569.237 10 0 60396 47700.00000 0 -676184.739 21635252.109 13490854.048 10 0 60396 48600.00000 0 -1113316.668 19869109.911 15956012.745 10 0 60396 49500.00000 0 -1780749.270 17874567.538 18111214.772 10 0 60396 50400.00000 0 -2694353.202 15713232.563 19914671.388 10 0 60396 51300.00000 0 -3857929.680 13450512.490 21331440.822 10 0 60396 52200.00000 0 -5262827.101 11153009.641 22334099.002 10 0 60396 53100.00000 0 -6888089.840 8885885.023 22903263.693 10 0 60396 54000.00000 0 -8701133.494 6710300.459 23027962.747 10 0 60396 54900.00000 0 -10658918.884 4681044.626 22705840.157 10 0 60396 55800.00000 0 -12709576.449 2844440.691 21943196.568 10 0 60396 56700.00000 0 -14794414.047 1236621.312 20754863.902 10 0 60396 57600.00000 0 -16850225.287 -117758.677 19163916.671 10 0 60396 58500.00000 0 -18811803.020 -1206319.654 17201225.488 10 0 60396 59400.00000 0 -20614554.016 -2029232.895 14904861.094 10 0 60396 60300.00000 0 -22197106.533 -2598964.306 12319359.933 10 0 60396 61200.00000 0 -23503802.486 -2939498.064 9494864.960 10 0 60396 62100.00000 0 -24486970.508 -3085073.691 6486157.745 10 0 60396 63000.00000 0 -25108885.072 -3078490.356 3351600.110 10 0 60396 63900.00000 0 -25343329.635 -2969050.399 152005.468 10 0 60396 64800.00000 0 -25176698.149 -2810229.221 -3050538.448 10 0 60396 65700.00000 0 -24608588.430 -2657170.308 -6193872.776 10 0 60396 66600.00000 0 -23651862.027 -2564111.582 -9216973.135 10 0 60396 67500.00000 0 -22332167.566 -2581852.309 -12061134.166 10 0 60396 68400.00000 0 -20686946.962 -2755368.117 -14671109.858 10 0 60396 69300.00000 0 -18763965.580 -3121675.584 -16996187.321 10 0 60396 70200.00000 0 -16619427.326 -3708037.330 -18991173.081 10 0 60396 71100.00000 0 -14315752.962 -4530584.337 -20617272.724 10 0 60396 72000.00000 0 -11919114.015 -5593414.664 -21842846.793 10 0 60396 72900.00000 0 -9496824.739 -6888207.783 -22644028.313 10 0 60396 73800.00000 0 -7114700.456 -8394372.133 -23005189.979 10 0 60396 74700.00000 0 -4834491.982 -10079721.145 -22919251.866 10 0 60396 75600.00000 0 -2711502.582 -11901650.815 -22387823.532 10 0 60396 76500.00000 0 -792486.301 -13808770.784 -21421177.495 10 0 60396 77400.00000 0 886085.205 -15742921.808 -20038054.190 10 0 60396 78300.00000 0 2299315.589 -17641495.983 -18265301.740 10 0 60396 79200.00000 0 3434683.151 -19439963.240 -16137357.026 10 0 60396 80100.00000 0 4292313.914 -21074498.537 -13695577.721 10 0 60396 81000.00000 0 4884717.882 -22484599.655 -10987437.932 10 0 60396 81900.00000 0 5236000.639 -23615585.570 -8065602.940 10 0 60396 82800.00000 0 5380584.569 -24420870.104 -4986901.162 10 0 60396 83700.00000 0 5361494.894 -24863914.842 -1811213.653 10 0 60396 84600.00000 0 5228284.202 -24919778.779 1399696.697 10 0 60396 85500.00000 0 5034684.518 -24576199.106 4583392.718 99